Temperature
21 21 21 21 18 17 19 19 20 20 21 21 20 20 19 18 18 17 17 17 17 17 17 17 17 17 17 17 17 17 17 17 17 17 17 17 17 17 18 18 18 18 18 18 18 18 18 18 18
22 21 21 21 17 18 19 19 20 21 21 21 20 20 18 18 17 17 17 17 17 17 17 17 17 17 17 17 17 17 17 17 17 17 17 17 17 17 17 17 18 18 18 18 17 18 18 17 17
22 21 21 18 18 18 19 20 20 21 22 21 20 19 18 18 17 17 17 17 17 17 17 17 17 17 17 17 17 17 17 17 17 17 17 17 17 17 17 17 17 17 17 17 17 17 17 17 17
22 21 21 18 19 20 20 20 21 21 21 21 20 18 18 18 18 18 18 17 18 17 17 17 17 17 17 17 17 17 17 17 17 17 17 17 17 17 17 17 17 17 17 17 17 17 17 17 17
22 21 18 18 19 20 20 21 21 21 21 20 19 18 18 18 18 18 18 18 18 17 17 17 17 17 17 17 17 17 17 17 17 17 17 17 17 17 17 17 17 17 17 17 17 17 17 17 17
22 19 18 18 20 20 21 22 21 20 20 19 19 18 18 18 18 18 18 18 18 18 17 17 17 17 17 17 17 17 17 17 17 17 17 17 17 17 16 16 17 17 17 17 17 17 17 17 17
21 18 18 19 19 20 21 22 21 20 20 20 19 17 18 18 18 18 18 18 18 17 17 17 17 17 17 17 16 16 16 16 16 16 16 16 16 16 16 16 16 16 16 16 16 16 17 16 16
23 18 19 19 19 20 21 21 21 21 20 20 20 18 18 18 18 18 18 18 17 17 17 17 17 17 17 16 16 16 16 16 16 16 16 16 16 16 16 16 16 16 16 16 16 16 16 16 16
23 18 18 19 20 20 21 21 21 21 20 20 20 19 19 18 18 18 18 18 17 17 17 17 17 17 17 16 16 16 16 16 16 16 16 16 16 16 16 16 16 16 16 16 16 16 16 16 16
21 18 20 21 20 20 21 21 21 20 20 19 19 19 19 18 18 18 18 18 17 17 17 17 17 17 16 16 16 16 16 16 16 16 16 16 16 16 16 16 16 16 16 16 16 16 16 16 16
21 19 21 21 22 22 21 21 21 20 19 19 19 19 18 18 18 18 18 18 18 17 17 17 17 17 16 16 16 16 16 16 16 16 16 16 16 16 16 16 16 16 16 16 16 16 16 16 16
21 21 22 22 22 22 21 21 20 20 20 20 20 19 19 18 18 18 18 18 18 18 17 17 17 17 16 16 16 16 16 16 16 16 16 16 16 16 16 16 16 16 16 16 16 16 15 15 15
21 21 22 22 22 22 21 21 20 20 21 20 20 19 19 19 19 18 18 18 18 18 17 17 17 17 16 16 16 16 16 16 16 16 16 16 16 16 15 15 15 15 15 15 15 15 15 15 15
22 22 22 22 22 22 21 20 20 20 20 20 19 19 19 19 19 19 18 18 18 18 17 17 17 17 17 16 16 16 16 16 16 16 16 15 15 15 15 15 15 15 15 15 15 15 15 15 15
22 21 21 21 21 21 21 19 19 20 20 19 19 19 19 19 19 19 19 18 18 18 17 17 17 17 17 16 16 16 16 16 16 16 15 15 15 15 15 15 15 15 15 15 15 15 15 15 15
21 20 19 20 21 21 20 19 19 20 20 19 19 19 19 19 19 19 19 18 18 18 17 17 17 17 16 16 16 16 16 16 16 15 15 15 15 15 15 15 15 15 15 15 15 15 15 15 15
20 19 19 20 21 21 20 19 19 20 20 19 19 19 19 19 19 19 19 18 18 18 18 17 17 17 16 16 16 16 16 15 15 15 15 15 15 15 15 15 15 15 15 15 15 15 15 15 15
19 19 20 20 21 20 19 18 19 20 19 19 19 19 19 19 19 19 19 18 18 18 18 17 17 17 16 16 16 16 16 15 15 15 15 15 15 15 15 15 15 15 15 15 15 15 15 15 15
20 20 20 20 21 20 19 19 19 19 19 19 18 19 19 19 19 19 18 18 18 18 17 17 17 17 17 16 16 16 16 15 15 15 15 15 15 15 15 15 15 15 15 15 15 15 15 14 14
21 20 20 21 21 21 19 19 19 19 19 19 19 18 19 19 19 18 18 18 18 18 17 17 17 17 16 16 16 16 16 15 15 15 15 15 15 15 15 15 15 15 15 15 15 15 14 14 14
21 21 21 21 21 21 19 19 19 19 19 19 19 19 19 19 19 18 18 18 18 18 17 17 17 17 17 16 16 16 16 15 15 15 15 15 15 15 15 15 15 15 15 15 15 14 15 14 14
21 22 22 21 20 18 19 18 18 18 18 18 19 19 19 19 19 18 18 18 18 18 17 17 17 17 17 16 16 16 16 15 15 15 15 15 15 15 15 15 15 15 15 15 14 14 14 14 14
21 22 22 21 20 19 19 18 17 18 18 18 18 18 19 19 19 18 18 18 18 18 17 17 17 17 17 16 16 16 16 16 15 15 15 15 15 15 15 15 15 15 15 15 15 14 14 14 14
22 21 20 18 18 18 19 18 18 17 18 18 18 18 19 19 19 19 18 18 18 17 17 17 17 17 17 16 16 16 16 16 15 15 15 15 15 15 15 15 15 15 15 15 15 15 14 14 14
20 18 17 18 17 17 18 18 18 18 19 19 18 19 19 19 19 18 18 18 18 17 17 17 17 17 17 17 16 16 16 16 16 15 15 15 15 15 15 15 15 15 15 15 15 14 15 15 14
20 19 17 18 17 17 18 18 18 19 19 20 19 19 19 19 19 19 18 18 18 18 17 17 17 17 17 17 16 16 16 16 16 15 15 15 15 15 15 15 15 15 15 15 15 14 15 15 14
20 18 18 17 18 17 17 18 19 19 19 18 19 19 18 18 18 18 18 18 18 18 17 17 17 17 17 16 16 16 16 16 16 15 15 15 15 15 15 15 15 15 15 15 15 14 14 14 14
20 19 17 17 17 17 18 18 17 18 18 18 17 18 18 18 18 18 18 18 18 18 17 17 17 17 17 16 16 16 16 16 16 16 15 15 15 15 15 15 15 15 15 15 15 14 14 14 14
20 20 18 16 16 17 17 17 19 18 18 17 17 18 18 18 18 18 18 18 18 17 17 17 17 17 16 16 16 16 16 16 16 15 15 15 15 15 15 15 15 15 15 15 15 14 14 14 14
20 19 17 17 17 16 16 17 19 18 18 18 18 18 18 18 18 18 18 18 17 17 17 17 16 16 16 16 16 16 16 16 15 15 15 15 15 15 15 15 15 15 15 15 14 14 14 14 14
Wind_Speed
4 3 2 3 5 6 4 2 2 3 4 4 8 9 8 6 5 5 2 4 6 4 4 6 8 8 9 9 9 9 10 10 10 10 10 11 11 12 12 12 12 13 12 12 12 11 11 12 12
2 1 3 5 5 4 2 1 4 3 5 6 7 8 7 6 4 5 2 5 6 5 5 7 8 8 9 9 9 10 10 10 10 10 10 11 11 11 11 11 12 12 12 12 12 11 11 12 12
1 1 4 4 4 4 4 2 4 5 5 4 5 6 5 4 3 3 4 6 6 5 5 7 8 9 9 9 9 9 9 9 9 10 10 10 10 11 11 11 12 12 12 12 12 12 12 12 12
2 5 5 6 6 2 5 5 4 5 6 6 6 6 4 2 3 4 6 7 6 4 5 7 8 8 8 9 9 9 9 9 9 9 9 10 10 11 11 11 12 12 12 12 12 13 13 13 13
4 5 6 5 4 2 4 5 5 6 4 6 7 6 3 2 4 6 7 7 6 4 5 7 8 8 8 8 8 8 8 8 8 8 9 9 10 11 11 11 11 11 11 11 12 12 13 13 13
4 5 5 4 3 3 2 5 7 8 7 6 7 6 2 1 4 5 6 6 6 6 5 6 8 8 8 7 7 7 7 7 7 8 8 9 9 10 10 10 10 10 10 11 11 11 12 12 12
5 4 4 4 3 3 3 4 7 7 6 4 5 5 2 1 3 5 5 5 5 6 6 4 5 6 7 7 7 7 7 7 6 6 7 8 8 9 9 9 9 9 9 10 11 11 12 12 12
5 5 3 2 4 3 2 4 5 6 4 3 5 7 5 5 4 5 5 4 4 4 5 4 4 4 5 5 5 6 5 5 5 5 6 7 7 8 7 7 8 8 9 9 10 10 11 12 12
5 5 3 3 5 4 5 6 4 5 6 4 3 5 6 8 6 5 4 3 4 4 4 4 4 4 4 4 4 4 4 4 4 5 6 6 6 6 5 6 6 7 7 8 9 9 9 10 11
5 4 2 3 5 6 5 6 4 4 6 5 5 5 8 7 7 6 5 4 3 4 4 3 4 3 3 3 4 3 3 3 4 4 5 5 5 5 5 5 6 6 6 7 7 8 8 7 7
4 5 3 4 5 6 5 4 4 7 3 4 7 9 8 6 6 6 5 4 4 4 4 4 4 4 4 3 3 3 3 3 3 4 5 5 5 4 4 4 5 6 6 5 6 6 6 6 6
5 3 4 4 5 5 4 4 4 4 4 7 10 10 8 6 6 6 6 5 4 5 5 4 4 4 4 4 3 3 3 2 2 3 5 6 4 3 3 3 3 4 4 5 5 5 6 7 8
4 3 4 5 6 5 6 5 5 3 5 8 9 8 8 7 5 4 5 5 5 6 4 4 5 5 4 4 3 3 3 2 3 4 5 6 4 3 3 2 3 4 5 5 5 5 6 6 7
4 4 3 3 4 4 6 3 4 3 6 8 9 8 7 6 6 5 5 5 5 5 5 4 5 5 5 4 3 2 3 3 4 3 5 6 5 4 3 3 3 4 4 5 5 6 6 5 5
3 3 2 0 3 4 6 1 3 5 8 8 8 7 6 5 6 6 7 6 6 5 5 6 6 6 6 4 4 3 4 5 4 3 5 6 6 5 4 3 3 4 6 7 7 6 6 5 5
2 2 0 3 3 4 6 3 5 5 8 7 7 6 6 5 5 5 6 7 6 6 5 5 6 6 6 4 4 4 4 5 4 5 5 6 7 8 6 4 3 5 6 6 4 4 5 5 4
1 1 3 4 4 4 5 4 5 6 8 7 6 7 6 5 4 4 6 7 7 7 6 5 6 6 5 4 4 4 4 4 4 5 5 6 7 8 7 4 4 6 5 4 4 4 4 4 4
4 4 3 4 3 5 5 5 4 6 8 7 6 6 6 6 6 5 6 6 7 6 6 6 5 5 5 4 4 3 3 3 4 4 4 6 7 8 7 5 5 6 5 4 4 5 4 3 3
5 3 4 4 4 5 6 6 6 6 6 7 6 6 6 7 5 5 6 7 7 6 6 5 5 4 4 3 3 3 1 1 2 2 4 5 6 7 6 5 4 5 4 4 4 4 5 3 3
4 4 3 3 3 5 5 5 5 7 8 9 10 9 8 6 4 5 6 6 7 7 6 5 5 5 4 3 3 2 2 1 1 1 3 4 5 6 6 5 4 4 4 4 4 3 3 2 2
4 5 5 4 1 1 2 3 4 4 5 5 7 8 9 9 8 7 7 6 7 7 7 6 5 5 4 4 3 3 3 3 2 2 1 2 4 5 6 5 5 4 4 3 3 3 4 2 2
4 4 5 4 2 3 3 2 6 4 4 5 6 7 8 8 7 8 8 7 7 7 6 7 6 5 4 5 5 5 3 2 2 1 1 1 3 4 5 5 5 4 3 3 3 3 3 3 1
5 4 3 3 2 1 2 2 5 2 5 7 7 8 8 8 9 9 9 8 7 6 7 6 6 5 4 4 5 5 3 2 1 1 2 1 1 3 4 5 5 4 3 3 3 3 3 2 2
3 2 3 3 3 2 5 4 5 5 8 7 7 7 8 8 8 8 7 6 5 5 5 6 6 5 4 5 5 6 5 4 3 2 2 1 1 1 2 4 4 4 3 3 3 2 3 2 2
4 5 3 3 2 5 3 3 6 6 6 8 9 8 7 8 7 7 7 7 6 6 6 6 7 5 4 5 5 5 6 6 5 4 3 2 1 1 1 3 3 3 3 3 3 2 2 2 3
3 7 6 4 4 4 2 3 5 4 3 5 7 7 7 7 7 8 9 8 8 7 7 7 7 6 5 5 4 4 5 4 4 4 4 4 3 3 3 3 3 4 4 4 3 2 2 2 3
3 4 6 6 2 2 3 3 4 1 2 4 6 6 7 7 7 8 8 8 7 7 7 8 8 6 5 5 5 4 4 4 4 4 4 3 3 3 3 3 3 3 3 4 4 2 2 2 2
5 5 5 4 3 3 3 3 4 5 5 5 6 7 7 6 7 7 7 7 7 7 6 6 6 6 5 5 5 5 5 5 5 4 4 4 3 3 3 3 3 3 3 3 3 2 2 3 2
2 2 3 3 4 4 3 5 5 8 9 8 7 8 8 8 8 7 7 6 6 5 5 5 5 4 4 5 5 5 4 4 4 4 4 4 3 3 3 4 4 3 3 3 3 3 3 3 2
4 4 5 4 3 4 4 6 4 4 6 7 6 6 7 7 7 7 7 6 5 5 5 5 5 4 4 4 4 5 5 4 4 4 4 4 4 3 3 4 4 4 3 3 3 3 3 3 3
Wind_Direction
300 317 90 64 55 55 55 29 85 62 59 57 70 80 82 65 81 121 203 132 131 126 110 97 89 82 80 78 81 83 82 83 84 84 85 83 83 83 81 81 82 83 83 84 84 85 85 85 88
321 48 66 59 77 75 42 55 88 85 131 115 78 75 77 70 80 115 135 140 135 132 123 105 96 89 85 84 84 86 84 84 85 87 88 87 86 85 85 84 83 83 83 82 82 83 86 87 88
293 105 76 64 81 126 140 156 118 91 98 95 76 54 68 96 102 135 165 148 133 127 123 114 105 99 93 90 87 88 86 87 87 90 92 91 90 90 89 87 85 83 82 81 79 78 83 86 88
69 49 57 72 78 121 153 171 133 98 65 61 93 69 60 78 135 150 146 137 131 128 130 127 116 109 104 99 92 90 90 90 93 92 94 92 92 92 91 89 87 85 82 80 79 78 81 82 85
68 73 65 69 79 89 119 129 114 95 85 80 88 90 65 16 107 128 135 138 140 143 139 133 123 117 113 109 103 96 94 94 95 94 95 94 94 96 94 92 89 85 83 81 80 80 82 83 86
57 69 85 93 93 83 69 102 99 91 96 98 95 104 107 133 114 128 132 144 149 148 149 137 127 123 118 115 107 103 99 97 97 97 101 100 98 98 96 95 91 87 85 83 80 79 81 84 87
104 91 113 132 114 88 92 89 98 101 94 104 121 104 127 212 155 141 134 138 144 145 143 139 137 126 120 118 112 104 98 95 97 101 107 107 103 101 101 98 95 91 88 84 80 78 78 81 85
124 100 86 110 119 113 110 87 98 100 94 99 112 129 169 206 172 133 120 121 135 141 146 152 153 139 127 119 118 108 99 94 93 94 98 104 103 105 105 100 99 96 92 88 83 81 79 79 81
87 82 106 155 142 141 127 102 81 85 94 65 80 141 163 162 143 124 112 101 125 142 155 154 152 150 142 131 113 111 99 86 85 84 90 97 96 99 101 102 104 101 96 91 86 82 81 76 75
84 111 162 162 147 143 130 123 128 95 87 74 71 91 128 143 145 145 144 147 146 150 161 153 153 158 149 130 104 91 83 74 73 79 88 102 106 106 99 95 94 96 94 88 85 81 77 73 72
114 139 132 105 124 124 114 109 112 121 114 154 148 148 151 152 156 158 161 160 160 153 150 155 154 147 137 118 112 95 86 78 67 69 89 100 99 99 90 70 63 63 72 67 64 67 71 79 86
110 117 128 126 122 119 125 125 101 125 171 166 158 156 151 155 168 169 161 159 146 137 143 149 146 134 130 120 114 105 90 72 62 75 101 107 105 103 96 70 57 60 67 72 71 76 81 83 86
112 124 116 123 114 119 111 116 124 141 150 141 140 141 149 159 165 167 158 150 135 130 130 129 124 123 117 107 103 104 103 95 90 89 103 112 113 107 95 82 76 68 76 83 83 83 82 83 83
136 125 117 121 123 126 120 127 120 179 148 137 142 152 162 163 162 146 140 137 137 136 134 125 118 119 113 108 108 110 98 93 86 89 106 114 116 113 103 81 78 77 84 90 92 90 87 80 83
109 98 37 227 162 160 122 59 205 186 153 148 157 162 160 165 159 150 150 148 145 142 133 129 122 113 108 106 104 97 89 89 81 91 103 109 112 109 103 90 79 81 90 89 87 83 82 82 78
57 73 318 269 184 173 134 210 244 182 156 162 167 170 166 177 171 160 149 144 143 134 128 130 128 121 116 111 104 91 84 84 81 86 94 97 103 108 104 94 85 89 88 88 85 80 81 73 73
34 185 223 263 202 160 150 210 234 177 161 171 174 174 173 177 179 170 158 148 146 138 132 122 120 123 120 111 99 90 84 78 78 83 87 91 102 109 106 97 94 94 86 79 91 78 91 87 80
212 212 226 230 210 148 165 217 222 187 173 179 177 176 176 183 195 179 161 151 143 138 134 128 122 120 119 104 86 74 63 59 65 77 90 95 105 109 106 100 94 93 85 75 81 83 72 82 84
195 211 238 247 204 161 188 216 219 197 188 186 182 181 185 198 199 171 156 147 138 140 137 133 126 128 124 113 109 101 94 60 51 71 97 107 112 114 110 105 96 92 92 95 95 98 83 67 78
213 217 253 272 198 172 195 233 229 201 200 193 185 183 186 186 177 170 159 152 150 152 150 145 142 142 141 145 144 141 143 133 117 67 84 115 123 124 126 119 116 107 104 94 91 99 98 61 63
217 198 212 217 263 53 119 306 271 244 207 197 189 187 186 181 180 175 168 166 160 160 162 158 156 152 149 143 112 89 68 53 47 53 48 80 124 126 130 131 126 122 120 123 122 120 120 113 42
250 230 193 184 152 247 178 241 268 233 216 211 203 191 187 182 175 174 173 172 172 174 163 154 156 153 154 142 132 134 136 143 187 178 159 82 109 125 136 137 136 133 132 135 145 130 127 126 117
220 221 202 205 182 278 250 186 271 207 218 227 211 195 187 181 176 177 178 178 175 167 160 159 153 152 155 148 147 140 139 159 157 123 112 86 79 118 135 142 140 141 145 150 142 129 127 131 141
166 54 27 46 77 269 240 188 252 222 214 212 206 192 187 183 175 176 172 161 160 159 155 156 152 155 155 146 148 150 153 151 140 137 142 140 95 79 116 139 146 146 150 158 156 150 136 130 125
92 88 25 353 350 258 253 188 244 239 213 192 188 187 183 177 171 169 162 161 162 159 156 154 153 156 158 151 156 160 161 159 165 167 167 163 151 146 159 140 147 149 151 154 146 140 138 137 129
186 149 162 201 230 274 309 221 257 252 190 173 171 166 166 171 174 174 172 171 172 169 166 161 162 166 170 165 173 170 164 162 172 176 174 176 179 181 170 151 149 148 147 143 133 130 148 135 136
168 191 174 154 212 249 271 276 306 9 124 145 155 157 171 176 176 176 175 175 175 175 176 173 171 173 181 180 175 170 164 163 171 173 170 174 181 173 156 151 149 148 142 138 132 135 147 135 141
176 168 110 135 177 242 274 244 229 216 202 179 171 175 179 174 171 170 171 176 179 180 174 168 170 178 182 179 182 179 175 168 167 159 163 171 174 159 150 154 152 152 148 141 130 133 139 129 136
197 158 130 146 171 170 232 258 234 202 187 180 185 183 176 173 174 174 173 174 171 165 163 165 167 169 175 177 176 173 180 173 162 160 167 167 160 159 162 164 159 161 157 148 138 142 142 139 129
186 178 149 165 229 185 192 263 296 184 171 165 166 170 173 172 173 170 167 163 159 160 162 165 166 170 182 178 169 174 173 164 160 165 170 159 155 159 161 154 155 165 162 157 151 156 145 145 143
Height
1513 1512 1511 1513 1516 1527 1531 1527 1522 1520 1520 1521 1520 1520 1524 1527 1531 1538 1535 1532 1532 1531 1530 1529 1528 1527 1526 1525 1524 1523 1523 1522 1521 1521 1521 1521 1521 1520 1520 1520 1520 1519 1519 1519 1518 1518 1518 1518 1519
1512 1512 1513 1513 1524 1538 1535 1526 1523 1520 1521 1521 1522 1523 1525 1529 1530 1532 1532 1533 1533 1532 1531 1529 1528 1527 1526 1526 1525 1524 1524 1523 1523 1522 1522 1522 1522 1521 1521 1521 1521 1521 1520 1520 1519 1518 1518 1518 1520
1512 1512 1514 1518 1528 1536 1533 1525 1522 1521 1521 1521 1524 1526 1528 1531 1532 1532 1533 1533 1533 1532 1531 1530 1529 1528 1527 1527 1526 1525 1525 1524 1524 1524 1523 1523 1523 1523 1522 1522 1522 1522 1521 1521 1520 1519 1518 1519 1521
1512 1514 1516 1524 1530 1526 1524 1522 1521 1521 1522 1523 1524 1528 1531 1533 1533 1533 1534 1534 1534 1533 1532 1531 1530 1529 1528 1528 1527 1527 1526 1526 1525 1525 1525 1524 1524 1524 1523 1523 1523 1523 1523 1522 1522 1521 1521 1522 1523
1513 1515 1523 1531 1529 1524 1521 1520 1520 1521 1523 1525 1526 1530 1533 1534 1534 1534 1534 1535 1535 1534 1533 1532 1532 1530 1529 1529 1528 1528 1527 1527 1527 1526 1526 1526 1525 1525 1525 1524 1524 1524 1524 1524 1524 1524 1524 1524 1524
1514 1517 1531 1537 1530 1525 1522 1521 1522 1523 1525 1527 1528 1531 1534 1535 1535 1535 1535 1535 1535 1535 1534 1534 1533 1532 1531 1530 1529 1529 1529 1528 1528 1528 1527 1527 1527 1526 1526 1525 1525 1525 1525 1525 1525 1526 1526 1526 1526
1515 1522 1530 1532 1531 1527 1524 1522 1523 1525 1526 1528 1529 1532 1535 1536 1536 1536 1536 1536 1536 1536 1535 1535 1534 1533 1532 1531 1531 1530 1530 1530 1529 1529 1529 1528 1528 1528 1528 1527 1527 1527 1527 1527 1527 1527 1527 1528 1528
1514 1521 1528 1531 1531 1529 1524 1523 1524 1525 1527 1529 1529 1531 1534 1535 1536 1536 1537 1537 1536 1536 1536 1535 1535 1534 1533 1533 1532 1532 1531 1531 1531 1530 1530 1530 1529 1529 1529 1529 1529 1529 1529 1529 1529 1529 1529 1529 1530
1515 1525 1532 1529 1528 1527 1524 1524 1526 1527 1527 1529 1529 1530 1532 1534 1536 1537 1537 1537 1537 1537 1536 1536 1535 1535 1535 1534 1533 1533 1533 1532 1532 1531 1531 1531 1531 1531 1531 1531 1530 1530 1530 1530 1530 1530 1531 1531 1531
1516 1528 1526 1522 1522 1524 1524 1524 1526 1528 1529 1530 1531 1532 1533 1535 1536 1536 1536 1536 1537 1537 1537 1537 1536 1536 1535 1535 1534 1534 1534 1533 1533 1533 1533 1533 1532 1532 1532 1532 1532 1532 1532 1532 1532 1532 1532 1532 1533
1517 1523 1521 1520 1521 1522 1524 1525 1526 1527 1530 1530 1531 1532 1533 1535 1536 1536 1536 1536 1537 1537 1537 1537 1536 1536 1536 1536 1536 1535 1535 1535 1534 1534 1534 1534 1534 1534 1534 1533 1533 1533 1534 1534 1534 1534 1534 1534 1534
1518 1519 1520 1521 1521 1523 1524 1525 1527 1527 1529 1529 1530 1531 1533 1535 1535 1536 1536 1536 1537 1537 1537 1537 1537 1537 1537 1537 1537 1536 1536 1536 1536 1535 1535 1535 1535 1535 1535 1535 1535 1535 1535 1535 1535 1535 1535 1535 1535
1519 1520 1520 1521 1522 1523 1524 1525 1527 1528 1528 1530 1531 1532 1533 1534 1535 1536 1536 1537 1537 1537 1537 1538 1538 1538 1538 1538 1538 1537 1537 1537 1537 1537 1537 1536 1536 1536 1536 1536 1536 1536 1537 1536 1537 1537 1537 1536 1537
1520 1520 1521 1522 1522 1524 1525 1526 1527 1528 1529 1530 1531 1532 1533 1534 1534 1535 1536 1537 1537 1537 1538 1538 1538 1538 1538 1538 1538 1538 1538 1538 1538 1538 1538 1538 1538 1537 1537 1537 1538 1538 1538 1538 1538 1538 1538 1538 1538
1520 1522 1523 1522 1522 1524 1525 1529 1528 1527 1528 1529 1530 1531 1532 1533 1534 1534 1535 1536 1537 1537 1538 1538 1538 1539 1539 1539 1539 1539 1539 1539 1539 1539 1539 1539 1539 1539 1539 1539 1539 1539 1539 1539 1539 1539 1539 1539 1540
1522 1526 1532 1524 1522 1523 1528 1535 1527 1526 1527 1528 1529 1531 1532 1533 1533 1534 1535 1536 1537 1537 1538 1538 1539 1539 1539 1540 1540 1540 1540 1540 1540 1540 1540 1540 1540 1539 1540 1539 1539 1540 1540 1540 1540 1540 1540 1540 1541
1529 1535 1533 1527 1520 1521 1526 1531 1525 1525 1526 1527 1528 1529 1531 1532 1533 1534 1535 1535 1537 1537 1538 1538 1539 1539 1540 1540 1540 1541 1541 1541 1541 1540 1540 1540 1540 1540 1540 1540 1540 1541 1541 1541 1541 1541 1542 1542 1542
1535 1533 1531 1528 1521 1522 1526 1527 1524 1524 1524 1525 1527 1528 1529 1531 1532 1533 1534 1535 1536 1537 1538 1538 1539 1539 1540 1540 1541 1541 1541 1541 1541 1541 1541 1541 1541 1541 1541 1541 1541 1542 1542 1542 1542 1543 1543 1543 1543
1523 1527 1529 1524 1518 1522 1526 1525 1523 1523 1524 1524 1525 1526 1528 1529 1531 1532 1533 1534 1536 1537 1538 1538 1538 1539 1540 1540 1540 1541 1541 1542 1542 1542 1542 1542 1542 1542 1542 1542 1542 1542 1543 1543 1543 1544 1544 1544 1544
1521 1526 1527 1522 1517 1520 1525 1525 1521 1521 1521 1521 1523 1524 1526 1528 1529 1531 1532 1533 1534 1536 1537 1538 1538 1539 1539 1540 1540 1541 1541 1542 1542 1543 1543 1543 1543 1543 1543 1543 1543 1543 1543 1544 1544 1544 1545 1545 1545
1519 1523 1523 1524 1520 1520 1525 1530 1524 1520 1520 1521 1521 1522 1523 1525 1527 1529 1530 1532 1533 1534 1535 1536 1537 1538 1539 1540 1540 1541 1542 1542 1543 1543 1543 1543 1544 1544 1543 1543 1544 1544 1544 1544 1545 1545 1546 1546 1546
1522 1514 1515 1519 1526 1532 1528 1542 1528 1521 1520 1519 1519 1520 1521 1523 1525 1526 1528 1530 1531 1533 1534 1536 1537 1538 1539 1539 1540 1540 1541 1542 1542 1543 1543 1544 1544 1544 1544 1544 1544 1545 1545 1545 1546 1546 1546 1546 1546
1515 1510 1513 1516 1523 1531 1529 1538 1532 1521 1522 1518 1517 1517 1519 1521 1523 1524 1526 1528 1530 1532 1533 1535 1536 1537 1538 1539 1540 1540 1541 1542 1542 1543 1544 1544 1544 1545 1545 1545 1545 1545 1545 1546 1546 1546 1546 1547 1547
1508 1513 1516 1521 1529 1540 1530 1536 1533 1523 1517 1514 1514 1515 1517 1519 1521 1523 1525 1527 1528 1531 1532 1534 1535 1536 1537 1538 1539 1540 1541 1541 1542 1543 1543 1544 1544 1545 1545 1545 1545 1545 1546 1546 1546 1546 1546 1547 1546
1511 1526 1541 1542 1546 1543 1526 1529 1527 1512 1508 1509 1510 1512 1514 1517 1519 1521 1523 1525 1527 1529 1531 1532 1534 1535 1536 1537 1538 1539 1540 1541 1541 1542 1543 1543 1544 1544 1545 1545 1545 1546 1546 1546 1546 1546 1546 1546 1546
1513 1522 1542 1549 1549 1541 1527 1529 1520 1507 1505 1506 1508 1510 1513 1515 1516 1518 1521 1523 1525 1527 1529 1531 1532 1534 1535 1537 1538 1539 1539 1540 1541 1542 1542 1543 1543 1544 1544 1545 1545 1545 1546 1546 1546 1546 1546 1546 1546
1513 1520 1519 1534 1536 1542 1534 1524 1514 1507 1506 1507 1508 1510 1511 1513 1515 1517 1519 1522 1524 1526 1527 1529 1531 1532 1534 1535 1536 1537 1538 1539 1540 1541 1542 1542 1543 1543 1544 1544 1545 1545 1545 1545 1545 1545 1545 1545 1545
1506 1511 1524 1532 1541 1546 1536 1529 1524 1512 1509 1508 1508 1509 1510 1512 1513 1515 1518 1520 1522 1524 1526 1528 1530 1531 1532 1534 1535 1536 1537 1538 1539 1540 1540 1541 1542 1543 1543 1544 1544 1544 1544 1544 1544 1545 1545 1545 1545
1509 1511 1518 1528 1531 1541 1543 1532 1507 1505 1504 1506 1507 1507 1508 1510 1512 1514 1516 1518 1521 1523 1525 1526 1528 1529 1530 1532 1533 1534 1535 1537 1537 1538 1539 1540 1541 1542 1542 1543 1543 1543 1543 1543 1544 1544 1544 1544 1544
1504 1508 1516 1528 1531 1531 1536 1529 1501 1501 1502 1503 1505 1507 1508 1509 1511 1513 1515 1517 1519 1521 1523 1524 1526 1527 1528 1530 1531 1532 1534 1535 1536 1537 1538 1539 1540 1541 1541 1542 1542 1542 1542 1542 1543 1543 1543 1543 1543